Madison, MN

12:25 AM CST on December 06, 2019 (GMT -0600)
Madison-Lac Qui Parle County

Weather History for KDXX - October, 2019

Change the Weather History Date:

Sunday, October 6, 2019

  Actual Average (WUND) Record (WUND)
Temperature  
Mean Temperature 57 °F -  
Max Temperature 66 °F - - (-1)
Min Temperature 48 °F - - (-1)
Degree Days  
Heating Degree Days 8    
Growing Degree Days 7 (Base 50)    
Moisture  
Dew Point 40 °F    
Average Humidity 55    
Maximum Humidity 71    
Minimum Humidity 30    
Precipitation  
Precipitation 0.00 in - - ()
Sea Level Pressure  
Sea Level Pressure 29.98 in    
Wind  
Wind Speed 13 mph (West)    
Max Wind Speed 29 mph    
Max Gust Speed 38 mph    
Visibility 10 miles    
Events      
Averages and records for this station are not official NWS values.
T = Trace of Precipitation, MM = Missing Value Source: NWS Daily Summary

Daily Weather History Graph

Daily Weather History Graph

Search for Another Location

Airport or City:

Astronomy

Oct. 06, 2019 Rise Set
Actual Time 7:28 AM CDT 6:56 PM CDT
Civil Twilight 6:59 AM CDT 7:25 PM CDT
Nautical Twilight 6:25 AM CDT 7:59 PM CDT
Astronomical Twilight 5:51 AM CDT 8:33 PM CDT
Moon 3:55 PM CDT 12:07 AM CDT
Length of Visible Light 12h 26m
Length of Day
11h 27m
First Quarter, 60% of the Moon is Illuminated
Oct 6
First Quarter
Oct 13
Full
Oct 21
Last Quarter
Oct 27
New
Nov 4
First Quarter

Hourly Weather History & Observations

Time (CDT) Temp. Dew Point Humidity Pressure Visibility Wind Dir Wind Speed Gust Speed Precip Events Conditions
12:16 AM 51.8 °F 42.8 °F 71% 29.87 in 10.0 mi WSW 9.2 mph - N/A   Clear
12:36 AM 51.8 °F 42.8 °F 71% 29.86 in 10.0 mi West 9.2 mph - N/A   Clear
12:55 AM 53.6 °F 42.8 °F 67% 29.86 in 10.0 mi West 9.2 mph - N/A   Clear
12:56 AM 53.6 °F 42.8 °F 67% 29.86 in 10.0 mi West 10.4 mph - N/A   Clear
1:19 AM 53.6 °F 42.8 °F 67% 29.86 in 10.0 mi West 10.4 mph - N/A   Clear
1:36 AM 51.8 °F 42.8 °F 71% 29.87 in 10.0 mi WSW 11.5 mph - N/A   Clear
1:56 AM 51.8 °F 42.8 °F 71% 29.87 in 10.0 mi West 11.5 mph - N/A   Clear
2:15 AM 51.8 °F 41.0 °F 67% 29.87 in 10.0 mi West 10.4 mph - N/A   Clear
2:35 AM 51.8 °F 41.0 °F 67% 29.88 in 10.0 mi WSW 9.2 mph - N/A   Clear
2:39 AM 51.8 °F 41.0 °F 67% 29.88 in 10.0 mi WSW 10.4 mph - N/A   Clear
2:58 AM 51.8 °F 41.0 °F 67% 29.89 in 10.0 mi WSW 9.2 mph - N/A   Clear
3:15 AM 51.8 °F 41.0 °F 67% 29.89 in 10.0 mi WSW 10.4 mph - N/A   Clear
3:35 AM 51.8 °F 41.0 °F 67% 29.90 in 10.0 mi WSW 9.2 mph 16.1 mph N/A   Clear
3:36 AM 51.8 °F 41.0 °F 67% 29.90 in 10.0 mi WSW 9.2 mph 16.1 mph N/A   Clear
3:55 AM 50.0 °F 39.2 °F 66% 29.91 in 10.0 mi WSW 9.2 mph - N/A   Clear
4:17 AM 50.0 °F 39.2 °F 66% 29.91 in 10.0 mi WSW 8.1 mph - N/A   Clear
4:35 AM 48.2 °F 39.2 °F 71% 29.92 in 10.0 mi WSW 9.2 mph - N/A   Clear
4:55 AM 48.2 °F 39.2 °F 71% 29.92 in 10.0 mi West 10.4 mph 17.3 mph N/A   Clear
4:56 AM 50.0 °F 39.2 °F 66% 29.92 in 10.0 mi West 10.4 mph 17.3 mph N/A   Clear
5:15 AM 48.2 °F 39.2 °F 71% 29.92 in 10.0 mi WSW 9.2 mph - N/A   Clear
5:20 AM 48.2 °F 39.2 °F 71% 29.92 in 10.0 mi WSW 10.4 mph - N/A   Clear
5:38 AM 48.2 °F 39.2 °F 71% 29.93 in 10.0 mi WSW 10.4 mph 16.1 mph N/A   Clear
5:55 AM 48.2 °F 39.2 °F 71% 29.93 in 10.0 mi WSW 11.5 mph - N/A   Clear
6:15 AM 48.2 °F 39.2 °F 71% 29.93 in 10.0 mi WSW 12.7 mph - N/A   Clear
6:35 AM 48.2 °F 39.2 °F 71% 29.94 in 10.0 mi WSW 10.4 mph - N/A   Clear
6:36 AM 48.2 °F 39.2 °F 71% 29.94 in 10.0 mi WSW 11.5 mph - N/A   Clear
6:58 AM 48.2 °F 39.2 °F 71% 29.95 in 10.0 mi WSW 11.5 mph - N/A   Clear
7:17 AM 48.2 °F 39.2 °F 71% 29.95 in 10.0 mi WSW 10.4 mph 16.1 mph N/A   Clear
7:36 AM 48.2 °F 39.2 °F 71% 29.95 in 10.0 mi WSW 11.5 mph - N/A   Clear
7:55 AM 48.2 °F 39.2 °F 71% 29.95 in 10.0 mi WSW 11.5 mph - N/A   Clear
7:56 AM 48.2 °F 39.2 °F 71% 29.96 in 10.0 mi West 11.5 mph - N/A   Clear
8:15 AM 48.2 °F 39.2 °F 71% 29.96 in 10.0 mi West 13.8 mph 18.4 mph N/A   Clear
8:37 AM 51.8 °F 39.2 °F 62% 29.97 in 10.0 mi West 12.7 mph 18.4 mph N/A   Clear
8:56 AM 51.8 °F 41.0 °F 67% 29.97 in 10.0 mi West 15.0 mph 23.0 mph N/A   Clear
9:15 AM 53.6 °F 39.2 °F 58% 29.98 in 10.0 mi West 19.6 mph 24.2 mph N/A   Clear
9:16 AM 53.6 °F 39.2 °F 58% 29.98 in 10.0 mi West 18.4 mph 24.2 mph N/A   Clear
9:35 AM 55.4 °F 41.0 °F 58% 29.98 in 10.0 mi West 15.0 mph 20.7 mph N/A   Clear
9:36 AM 55.4 °F 41.0 °F 58% 29.98 in 10.0 mi West 15.0 mph 20.7 mph N/A   Clear
9:59 AM 55.4 °F 41.0 °F 58% 29.99 in 10.0 mi West 17.3 mph 24.2 mph N/A   Clear
10:16 AM 57.2 °F 41.0 °F 55% 29.99 in 10.0 mi West 16.1 mph 26.5 mph N/A   Clear
10:36 AM 57.2 °F 41.0 °F 55% 29.99 in 10.0 mi West 19.6 mph 25.3 mph N/A   Clear
10:55 AM 59.0 °F 41.0 °F 51% 30.00 in 10.0 mi West 19.6 mph 29.9 mph N/A   Clear
11:15 AM 60.8 °F 42.8 °F 52% 30.00 in 10.0 mi West 19.6 mph 29.9 mph N/A   Clear
11:19 AM 60.8 °F 42.8 °F 52% 30.00 in 10.0 mi West 17.3 mph 26.5 mph N/A   Clear
11:38 AM 60.8 °F 41.0 °F 48% 30.01 in 10.0 mi West 24.2 mph 29.9 mph N/A   Clear
11:56 AM 62.6 °F 42.8 °F 48% 30.01 in 10.0 mi WNW 23.0 mph 29.9 mph N/A   Clear
12:15 PM 62.6 °F 42.8 °F 48% 30.01 in 10.0 mi WNW 20.7 mph 27.6 mph N/A   Clear
12:16 PM 62.6 °F 42.8 °F 48% 30.01 in 10.0 mi WNW 18.4 mph 27.6 mph N/A   Clear
12:35 PM 62.6 °F 41.0 °F 45% 30.01 in 10.0 mi West 27.6 mph 33.4 mph N/A   Clear
12:59 PM 64.4 °F 39.2 °F 40% 30.01 in 10.0 mi WNW 23.0 mph 38.0 mph N/A   Clear
1:17 PM 64.4 °F 39.2 °F 40% 30.02 in 10.0 mi West 27.6 mph 34.5 mph N/A   Clear
1:36 PM 64.4 °F 39.2 °F 40% 30.02 in 10.0 mi West 24.2 mph 31.1 mph N/A   Clear
1:55 PM 64.4 °F 41.0 °F 42% 30.02 in 10.0 mi West 20.7 mph 28.8 mph N/A   Scattered Clouds
1:56 PM 64.4 °F 41.0 °F 42% 30.02 in 10.0 mi WNW 19.6 mph 28.8 mph N/A   Scattered Clouds
2:15 PM 64.4 °F 39.2 °F 40% 30.02 in 10.0 mi WNW 26.5 mph 32.2 mph N/A   Scattered Clouds
2:37 PM 64.4 °F 39.2 °F 40% 30.01 in 10.0 mi West 23.0 mph 32.2 mph N/A   Scattered Clouds
2:55 PM 66.2 °F 37.4 °F 35% 30.01 in 10.0 mi West 21.9 mph 34.5 mph N/A   Clear
3:15 PM 66.2 °F 37.4 °F 35% 30.01 in 10.0 mi West 20.7 mph 31.1 mph N/A   Clear
3:16 PM 66.2 °F 37.4 °F 35% 30.01 in 10.0 mi WNW 20.7 mph 31.1 mph N/A   Clear
3:35 PM 66.2 °F 37.4 °F 35% 30.01 in 10.0 mi WNW 19.6 mph 38.0 mph N/A   Clear
3:36 PM 66.2 °F 37.4 °F 35% 30.01 in 10.0 mi WNW 20.7 mph 34.5 mph N/A   Clear
3:59 PM 66.2 °F 37.4 °F 35% 30.01 in 10.0 mi West 18.4 mph 33.4 mph N/A   Clear
4:16 PM 66.2 °F 37.4 °F 35% 30.01 in 10.0 mi WNW 19.6 mph 31.1 mph N/A   Clear
4:36 PM 66.2 °F 35.6 °F 32% 30.01 in 10.0 mi WNW 28.8 mph 35.7 mph N/A   Clear
4:55 PM 66.2 °F 33.8 °F 30% 30.01 in 10.0 mi West 21.9 mph 26.5 mph N/A   Clear
5:15 PM 66.2 °F 35.6 °F 32% 30.01 in 10.0 mi West 17.3 mph 27.6 mph N/A   Clear
5:19 PM 66.2 °F 35.6 °F 32% 30.01 in 10.0 mi WNW 24.2 mph 31.1 mph N/A   Clear
5:37 PM 66.2 °F 35.6 °F 32% 30.01 in 10.0 mi WNW 18.4 mph 29.9 mph N/A   Clear
5:56 PM 64.4 °F 35.6 °F 34% 30.02 in 10.0 mi WNW 13.8 mph 23.0 mph N/A   Clear
6:15 PM 64.4 °F 37.4 °F 37% 30.03 in 10.0 mi West 11.5 mph 21.9 mph N/A   Clear
6:16 PM 64.4 °F 37.4 °F 37% 30.03 in 10.0 mi West 11.5 mph 21.9 mph N/A   Clear
6:35 PM 62.6 °F 37.4 °F 39% 30.03 in 10.0 mi West 9.2 mph 18.4 mph N/A   Clear
6:36 PM 62.6 °F 37.4 °F 39% 30.03 in 10.0 mi West 8.1 mph - N/A   Scattered Clouds
6:59 PM 59.0 °F 39.2 °F 48% 30.03 in 10.0 mi WSW 5.8 mph - N/A   Scattered Clouds
7:16 PM 59.0 °F 39.2 °F 48% 30.03 in 10.0 mi WSW 6.9 mph - N/A   Clear
7:35 PM 57.2 °F 39.2 °F 51% 30.03 in 10.0 mi WSW 8.1 mph - N/A   Clear
7:55 PM 55.4 °F 41.0 °F 58% 30.03 in 10.0 mi SW 9.2 mph - N/A   Scattered Clouds
7:56 PM 55.4 °F 41.0 °F 58% 30.03 in 10.0 mi SW 9.2 mph - N/A   Mostly Cloudy
8:15 PM 57.2 °F 41.0 °F 55% 30.03 in 10.0 mi WSW 9.2 mph - N/A   Mostly Cloudy
8:19 PM 57.2 °F 41.0 °F 55% 30.03 in 10.0 mi SW 9.2 mph - N/A   Overcast
8:38 PM 57.2 °F 41.0 °F 55% 30.04 in 10.0 mi WSW 10.4 mph - N/A   Overcast
8:55 PM 57.2 °F 41.0 °F 55% 30.04 in 10.0 mi WSW 10.4 mph - N/A   Overcast
9:15 PM 59.0 °F 41.0 °F 51% 30.04 in 10.0 mi WSW 10.4 mph - N/A   Overcast
9:16 PM 59.0 °F 41.0 °F 51% 30.04 in 10.0 mi WSW 11.5 mph - N/A   Overcast
9:35 PM 59.0 °F 39.2 °F 48% 30.05 in 10.0 mi West 9.2 mph - N/A   Overcast
9:58 PM 57.2 °F 39.2 °F 51% 30.05 in 10.0 mi West 9.2 mph - N/A   Overcast
10:17 PM 57.2 °F 39.2 °F 51% 30.06 in 10.0 mi West 11.5 mph - N/A   Mostly Cloudy
10:36 PM 57.2 °F 39.2 °F 51% 30.07 in 10.0 mi West 10.4 mph - N/A   Scattered Clouds
10:55 PM 55.4 °F 39.2 °F 54% 30.08 in 10.0 mi West 10.4 mph - N/A   Clear
10:56 PM 55.4 °F 39.2 °F 54% 30.08 in 10.0 mi West 9.2 mph - N/A   Clear
11:15 PM 55.4 °F 39.2 °F 54% 30.09 in 10.0 mi West 9.2 mph - N/A   Clear
11:37 PM 53.6 °F 39.2 °F 58% 30.09 in 10.0 mi West 9.2 mph - N/A   Clear
11:55 PM 51.8 °F 39.2 °F 62% 30.10 in 10.0 mi West 6.9 mph - N/A   Clear